Main page
METAR-TAF:

METAR-TAF

Airports :

Udaipur, India

Maharana Pratap Airport

latitude: 24-37-04N, longitude: 73-53-46E, elevation: 513 m

Current weather observation

The report was made 1 hour and 4 minutes ago, at 13:00 UTC
Calm wind
Temperature 31°C
Humidity 46%
Pressure 1009 hPa
Visibility: 6000 m
Few clouds at a height of 3000 ft

METAR: VAUD 211300Z 00000KT 6000 FEW030 31/18 Q1009 NOSIG

Time: 19:34 (14:04 UTC)


TAF: missing

Weather observations and forecasts of more than 4000 airports (METAR and TAF reports).

The available stations are represented by yellow and red dots on the map.

Hover mouse over dot to see the name of the station.

Then click to see weather observations and forecasts.

To change the map : click on the green buttons with a black cross to zoom in, on the green button with a dash to zoom out, or on the green arrows for adjacent maps.


METAR-TAF: